EW5226 Weather Reports


time (UTC)temp
C
wind
direction
speed
KPH
gust
KPH
rain 1hr
cm
rain 24hr
cm
rain mn
cm
humidity
%
barometer
mb
20260505171545 31 101 0.0 11.3 0.00 0.00 0.00 54 1016.3
20260505170045 31 60 1.6 8.0 0.00 0.00 0.00 53 1016.5
20260505164542 30 172 0.0 8.0 0.00 0.00 0.00 57 1016.6
20260505163041 30 214 0.0 4.8 0.00 0.00 0.00 56 1016.6
20260505161542 29 59 0.0 8.0 0.00 0.00 0.00 57 1016.7
20260505153040 30 39 0.0 6.4 0.00 0.00 0.00 58 1016.5
20260505151535 30 313 0.0 3.2 0.00 0.00 0.00 58 1016.5
20260505124507 21 76 0.0 6.4 0.00 0.00 0.00 84 1016.1
20260505123005 19 84 0.0 4.8 0.00 0.00 0.00 90 1016.2
20260505121504 17 99 0.0 1.6 0.00 0.00 0.00 92 1016.2
20260505120005 17 103 0.0 1.6 0.00 0.00 0.00 93 1016.2
20260505114501 17 103 0.0 0.0 0.00 0.00 0.00 93 1016.2
20260505113002 16 103 0.0 1.6 0.00 0.00 0.00 94 1015.9
20260505111600 16 221 0.0 0.0 0.00 0.00 0.00 94 1015.6
20260505110109 15 221 0.0 0.0 0.00 0.00 0.00 94 1015.3
20260505101559 15 66 0.0 0.0 0.00 0.00 0.00 93 1015.1
20260505100056 15 66 0.0 0.0 0.00 0.00 0.00 93 1014.9
20260505094555 15 66 0.0 0.0 0.00 0.00 0.00 93 1014.8
20260505093054 16 66 0.0 0.0 0.00 0.00 0.00 93 1014.9
20260505091606 16 67 0.0 0.0 0.00 0.00 0.00 92 1014.9
20260505090051 16 67 0.0 0.0 0.00 0.00 0.00 92 1014.7
20260505084551 16 66 0.0 0.0 0.00 0.00 0.00 92 1014.7
20260505083049 16 67 0.0 0.0 0.00 0.00 0.00 92 1014.5
20260505081552 16 67 0.0 0.0 0.00 0.00 0.00 91 1014.8
20260505080053 16 66 0.0 0.0 0.00 0.00 0.00 90 1014.4
20260505074544 16 66 0.0 0.0 0.00 0.00 0.00 90 1014.6
20260505073045 17 67 0.0 0.0 0.00 0.00 0.00 90 1014.7
20260505071539 17 67 0.0 0.0 0.00 0.00 0.00 88 1014.6
20260505070049 17 67 0.0 0.0 0.00 0.00 0.00 88 1014.9
20260505064535 17 66 0.0 0.0 0.00 0.00 0.00 87 1014.9
20260505063033 18 67 0.0 0.0 0.00 0.00 0.00 86 1015.1
20260505061537 17 66 0.0 0.0 0.00 0.00 0.00 85 1015.6
20260505060029 18 66 0.0 0.0 0.00 0.00 0.00 84 1015.5
20260505054532 18 66 0.0 0.0 0.00 0.00 0.00 83 1015.7
20260505053021 19 66 0.0 0.0 0.00 0.00 0.00 81 1015.8
20260505051520 19 67 0.0 0.0 0.00 0.00 0.00 79 1016.1
20260505041507 21 81 0.0 6.4 0.00 0.00 0.00 74 1016.5
20260505040007 21 70 0.0 1.6 0.00 0.00 0.00 74 1016.5
20260505034505 21 71 0.0 6.4 0.00 0.00 0.00 74 1016.5
20260505033004 21 68 0.0 4.8 0.00 0.00 0.00 74 1016.5
20260505031505 21 60 0.0 1.6 0.00 0.00 0.00 73 1016.4
20260505030004 21 72 0.0 4.8 0.00 0.00 0.00 73 1016.7
20260505024504 21 78 0.0 6.4 0.00 0.00 0.00 72 1016.5
20260505023008 21 354 0.0 3.2 0.00 0.00 0.00 72 1016.3
20260505021502 21 25 0.0 1.6 0.00 0.00 0.00 71 1016.2
20260505020001 22 79 0.0 1.6 0.00 0.00 0.00 70 1016.0
20260505014500 22 33 0.0 3.2 0.00 0.00 0.00 69 1015.8
20260505013100 22 129 0.0 6.4 0.00 0.00 0.00 68 1015.3
20260505011607 23 48 0.0 4.8 0.00 0.00 0.00 68 1015.3
20260505010100 23 75 0.0 8.0 0.00 0.00 0.00 67 1015.1
20260505004559 23 64 0.0 4.8 0.00 0.00 0.00 66 1014.9
20260505003059 23 70 1.6 8.0 0.00 0.00 0.00 64 1014.6
20260505001558 24 86 0.0 11.3 0.00 0.00 0.00 62 1014.8
20260505000115 25 84 0.0 6.4 0.00 0.00 0.00 61 1014.4
20260504234558 25 55 0.0 4.8 0.00 0.00 0.00 59 1014.1
20260504233108 26 65 0.0 14.5 0.00 0.00 0.00 56 1014.1
20260504231555 27 67 0.0 4.8 0.00 0.00 0.00 53 1013.9
20260504230055 28 76 0.0 6.4 0.00 0.00 0.00 49 1013.9
20260504224601 28 58 0.0 6.4 0.00 0.00 0.00 50 1013.9
20260504223117 28 70 0.0 6.4 0.00 0.00 0.00 48 1013.8
20260504221551 29 75 0.0 6.4 0.00 0.00 0.00 43 1014.0
20260504220051 30 70 0.0 9.7 0.00 0.00 0.00 40 1014.1
20260504214552 30 282 0.0 4.8 0.00 0.00 0.00 39 1013.9
20260504213059 31 8 0.0 3.2 0.00 0.00 0.00 35 1014.0
20260504211647 29 101 0.0 4.8 0.00 0.00 0.00 44 1014.1
20260504210045 30 70 0.0 9.7 0.00 0.00 0.00 41 1014.3
20260504204548 29 32 1.6 8.0 0.00 0.00 0.00 38 1014.2
20260504203059 29 59 6.4 16.1 0.00 0.00 0.00 37 1014.3
20260504201539 29 71 0.0 11.3 0.00 0.00 0.00 40 1014.4
20260504200037 28 51 1.6 14.5 0.00 0.00 0.00 40 1014.6
20260504194534 28 13 0.0 8.0 0.00 0.00 0.00 42 1014.8
20260504193032 28 102 1.6 8.0 0.00 0.00 0.00 43 1015.0
20260504191529 27 64 4.8 14.5 0.00 0.00 0.00 43 1015.2
20260504190028 27 41 6.4 12.9 0.00 0.00 0.00 44 1015.3
20260504184526 27 42 6.4 12.9 0.00 0.00 0.00 45 1015.6
20260504183023 27 80 3.2 11.3 0.00 0.00 0.00 46 1015.9
20260504181521 27 50 1.6 14.5 0.00 0.00 0.00 47 1016.4
20260504180020 27 346 4.8 16.1 0.00 0.00 0.00 44 1016.4
20260504174520 27 70 3.2 14.5 0.00 0.00 0.00 48 1016.4
20260504173019 27 58 0.0 11.3 0.00 0.00 0.00 47 1016.6